This is the latest recevied weather packets stored in our database for station/object PA3BWK. If no packets are shown the sender has not sent any weather packets the latest 10 day(s).
| Time | Temp. | Humidity | Pressure | Rain* | Wind** | Luminosity | Snow |
|---|---|---|---|---|---|---|---|
| 1777380512 | 18.89° C | 35% | 1023.6 hPa | 0 mm | - | 744 W/m² | - |
| 1777380452 | 18.89° C | 35% | 1023.6 hPa | 0 mm | - | 747 W/m² | - |
| 1777380402 | 18.89° C | 35% | 1023.6 hPa | 0 mm | - | 744 W/m² | - |
| 1777380332 | 18.89° C | 34% | 1023.7 hPa | 0 mm | - | 746 W/m² | - |
| 1777380273 | 18.89° C | 32% | 1023.6 hPa | 0 mm | - | 744 W/m² | - |
| 1777380212 | 18.89° C | 33% | 1023.7 hPa | 0 mm | - | 742 W/m² | - |
| 1777380154 | 18.89° C | 33% | 1023.7 hPa | 0 mm | - | 747 W/m² | - |
| 1777380093 | 18.89° C | 33% | 1023.7 hPa | 0 mm | - | 751 W/m² | - |
| 1777380033 | 18.89° C | 32% | 1023.8 hPa | 0 mm | - | 754 W/m² | - |
| 1777379972 | 18.89° C | 32% | 1023.6 hPa | 0 mm | - | 749 W/m² | - |
| 1777379915 | 18.89° C | 32% | 1023.8 hPa | 0 mm | - | 749 W/m² | - |
| 1777379853 | 18.89° C | 32% | 1023.7 hPa | 0 mm | - | 751 W/m² | - |
| 1777379792 | 18.89° C | 33% | 1023.7 hPa | 0 mm | - | 751 W/m² | - |
| 1777379732 | 18.89° C | 32% | 1023.7 hPa | 0 mm | - | 753 W/m² | - |
| 1777379672 | 18.89° C | 31% | 1023.8 hPa | 0 mm | - | 753 W/m² | - |
| 1777379613 | 18.89° C | 34% | 1023.7 hPa | 0 mm | - | 754 W/m² | - |
| 1777379552 | 18.89° C | 33% | 1023.7 hPa | 0 mm | - | 758 W/m² | - |
| 1777379492 | 18.89° C | 33% | 1023.8 hPa | 0 mm | - | 754 W/m² | - |
| 1777379434 | 18.89° C | 34% | 1023.8 hPa | 0 mm | - | 758 W/m² | - |
| 1777379373 | 18.89° C | 33% | 1023.7 hPa | 0 mm | - | 758 W/m² | - |
| 1777379313 | 18.89° C | 36% | 1023.7 hPa | 0 mm | - | 760 W/m² | - |
| 1777379252 | 18.89° C | 33% | 1023.7 hPa | 0 mm | - | 760 W/m² | - |
| 1777379192 | 18.89° C | 33% | 1023.7 hPa | 0 mm | - | 758 W/m² | - |
| 1777379133 | 18.89° C | 33% | 1023.8 hPa | 0 mm | - | 756 W/m² | - |
| 1777379073 | 18.89° C | 34% | 1023.7 hPa | 0 mm | - | 758 W/m² | - |
* Rain latest hour (hover to see other rain measurements)
** Current wind speed in m/s (hover to see current wind gust speed)